Date String (YYYY-MM-DD hh:mm:ss) UTC,Instrument flags,Ambient pressure (hPa),Sample flow (lpm),Bypass flow (lpm),Sample temperature (°C),Ambient temperature (°C),ASC tube jacket temperature (°C),LED temperature (°C),Box temperature (°C),Sample RH (%),Span deviation,Mass concentration (μg/m³),Mass concentration (μg/m³),Mass concentration (μg/m³)
DateTimeUTC,F1_M11,P_M11,Q1_M11,Q2_M11,T1_M11,T2_M11,T3_M11,T4_M11,T5_M11,U1_M11,ZSPAN_M11,X0_M11,X2_M11,X1_M11
2021-12-13 23:00:00,,0823.6,5.01,0.00,30.6,29.7,00.0,39.5,32.3,05.9,0000.0,0024.67,0006.26,0004.05
2021-12-13 23:01:00,,0823.5,4.99,0.00,30.6,29.7,00.0,39.5,32.3,05.9,0000.0,0025.64,0006.32,0004.07
2021-12-13 23:02:00,,0823.4,5.01,0.00,30.6,29.7,00.0,39.5,32.3,05.9,0000.0,0027.59,0006.33,0004.10
2021-12-13 23:03:00,,0823.5,5.01,0.00,30.6,29.7,00.0,39.5,32.3,06.0,0000.0,0027.56,0006.32,0004.14
2021-12-13 23:04:00,,0823.5,5.00,0.00,30.6,29.7,00.0,39.5,32.3,06.0,0000.0,0028.35,0006.35,0004.18
2021-12-13 23:05:00,,0823.4,5.00,0.00,30.6,29.7,00.0,39.5,32.3,05.9,0000.0,0028.01,0006.39,0004.19
2021-12-13 23:06:00,,0823.4,5.02,0.00,30.6,29.7,00.0,39.5,32.3,05.9,0000.0,0027.63,0006.43,0004.21
2021-12-13 23:07:00,,0823.6,4.99,0.00,30.6,29.7,00.0,39.5,32.3,05.9,0004.0,0027.23,0006.47,0004.23
2021-12-13 23:08:00,,0823.7,4.99,0.00,30.6,29.7,00.0,39.5,32.3,05.9,0001.2,0026.89,0006.49,0004.25
2021-12-13 23:09:00,,0823.7,5.00,0.00,30.6,29.8,00.0,39.5,32.3,05.8,0004.1,0026.84,0006.53,0004.28
2021-12-13 23:10:00,,0823.7,5.00,0.00,30.6,29.8,00.0,39.5,32.3,05.8,0005.3,0027.37,0006.59,0004.29
2021-12-13 23:11:00,,0823.7,5.01,0.00,30.6,29.8,00.0,39.5,32.3,05.9,0001.7,0027.75,0006.63,0004.31
2021-12-13 23:12:00,,0823.7,5.00,0.00,30.6,29.8,00.0,39.5,32.3,05.9,0000.0,0027.78,0006.69,0004.32
2021-12-13 23:13:00,,0823.6,4.99,0.00,30.6,29.7,00.0,39.5,32.3,06.0,0000.0,0027.74,0006.75,0004.33
2021-12-13 23:14:00,,0823.6,5.00,0.00,30.6,29.8,00.0,39.5,32.3,06.1,0001.7,0028.17,0006.77,0004.33
2021-12-13 23:15:00,,0823.6,5.01,0.00,30.6,29.8,00.0,39.5,32.3,06.1,0004.9,0028.39,0006.74,0004.34
2021-12-13 23:16:00,,0823.6,5.00,0.00,30.6,29.8,00.0,39.5,32.3,06.1,0005.1,0029.52,0006.77,0004.36
2021-12-13 23:17:00,,0823.6,5.02,0.00,30.6,29.8,00.0,39.6,32.3,06.0,0005.2,0029.69,0006.80,0004.39
2021-12-13 23:18:00,,0823.7,4.98,0.00,30.6,29.8,00.0,39.6,32.3,06.0,0004.8,0030.69,0006.83,0004.40
2021-12-13 23:19:00,,0823.7,5.00,0.00,30.6,29.8,00.0,39.6,32.3,06.1,0004.7,0030.68,0006.82,0004.41
2021-12-13 23:20:00,,0823.7,5.01,0.00,30.6,29.8,00.0,39.6,32.3,06.1,0000.6,0031.53,0006.84,0004.43
2021-12-13 23:21:00,,0823.7,5.01,0.00,30.6,29.8,00.0,39.6,32.4,06.1,0000.0,0030.68,0006.92,0004.45
2021-12-13 23:22:00,,0823.7,4.99,0.00,30.6,29.8,00.0,39.6,32.4,06.1,0000.0,0031.64,0006.96,0004.46
2021-12-13 23:23:00,,0823.7,4.99,0.00,30.6,29.8,00.0,39.6,32.3,06.1,0000.0,0032.00,0006.98,0004.47
2021-12-13 23:24:00,,0823.7,5.00,0.00,30.6,29.8,00.0,39.6,32.3,06.1,0000.0,0032.14,0006.94,0004.49
2021-12-13 23:25:00,,0823.7,5.00,0.00,30.6,29.7,00.0,39.6,32.3,06.2,0000.0,0032.25,0006.94,0004.52
2021-12-13 23:26:00,,0823.8,5.01,0.00,30.6,29.8,00.0,39.6,32.3,06.2,0000.0,0031.73,0006.98,0004.55
2021-12-13 23:27:00,,0823.8,5.00,0.00,30.6,29.8,00.0,39.6,32.3,06.2,0000.0,0030.01,0006.95,0004.57
2021-12-13 23:28:00,,0823.8,5.00,0.00,30.6,29.7,00.0,39.6,32.3,06.3,0000.0,0029.57,0006.90,0004.58
2021-12-13 23:29:00,,0823.9,5.01,0.00,30.6,29.7,00.0,39.6,32.3,06.2,0000.0,0029.22,0006.89,0004.60
2021-12-13 23:30:00,,0823.9,5.00,0.00,30.6,29.7,00.0,39.6,32.3,06.2,0000.0,0030.60,0006.97,0004.62
2021-12-13 23:31:00,,0823.9,4.99,0.00,30.6,29.7,00.0,39.6,32.3,06.2,0000.0,0029.95,0007.00,0004.62
2021-12-13 23:32:00,,0823.9,5.01,0.00,30.6,29.7,00.0,39.6,32.3,06.2,0003.9,0029.20,0006.90,0004.62
2021-12-13 23:33:00,,0823.9,5.01,0.00,30.6,29.7,00.0,39.6,32.3,06.2,0004.6,0028.27,0006.90,0004.64
2021-12-13 23:34:00,,0824.0,4.99,0.00,30.6,29.7,00.0,39.6,32.3,06.2,0004.0,0028.02,0006.88,0004.65
2021-12-13 23:35:00,,0824.0,5.01,0.00,30.6,29.7,00.0,39.6,32.3,06.2,0004.7,0027.42,0006.91,0004.66
2021-12-13 23:36:00,,0824.0,5.00,0.00,30.6,29.7,00.0,39.6,32.3,06.2,0005.3,0026.72,0006.96,0004.66
2021-12-13 23:37:00,,0823.9,5.01,0.00,30.6,29.7,00.0,39.6,32.3,06.2,0005.4,0026.13,0007.04,0004.64
2021-12-13 23:38:00,,0823.8,4.99,0.00,30.6,29.7,00.0,39.6,32.3,06.2,0002.9,0026.90,0007.02,0004.62
2021-12-13 23:39:00,,0823.7,5.00,0.00,30.6,29.7,00.0,39.5,32.3,06.2,0001.5,0027.64,0007.01,0004.61
2021-12-13 23:40:00,,0823.8,5.00,0.00,30.6,29.7,00.0,39.5,32.3,06.2,0000.2,0028.02,0007.02,0004.59
2021-12-13 23:41:00,,0823.8,5.01,0.00,30.6,29.7,00.0,39.5,32.3,06.3,0000.3,0027.03,0007.01,0004.58
2021-12-13 23:42:00,,0823.9,4.99,0.00,30.6,29.7,00.0,39.5,32.3,06.3,-000.2,0026.44,0007.03,0004.60
2021-12-13 23:43:00,,0824.0,5.00,0.00,30.6,29.7,00.0,39.5,32.3,06.3,0001.0,0027.07,0007.09,0004.62
2021-12-13 23:44:00,,0824.0,5.02,0.00,30.6,29.7,00.0,39.5,32.2,06.3,0001.8,0027.30,0007.11,0004.65
2021-12-13 23:45:00,,0823.9,4.99,0.00,30.6,29.7,00.0,39.5,32.3,06.3,0001.2,0028.79,0007.12,0004.65
2021-12-13 23:46:00,,0823.9,5.00,0.00,30.6,29.6,00.0,39.5,32.2,06.3,0001.4,0028.33,0007.13,0004.65
2021-12-13 23:47:00,,0824.0,5.00,0.00,30.5,29.6,00.0,39.5,32.2,06.3,0002.5,0029.45,0007.06,0004.64
2021-12-13 23:48:00,,0823.9,5.00,0.00,30.5,29.6,00.0,39.5,32.2,06.3,0002.8,0029.65,0007.03,0004.66
2021-12-13 23:49:00,,0824.0,5.00,0.00,30.5,29.6,00.0,39.5,32.2,06.3,0003.2,0029.88,0007.04,0004.68
2021-12-13 23:50:00,,0824.0,5.00,0.00,30.5,29.6,00.0,39.5,32.2,06.3,0004.3,0030.72,0007.09,0004.68
2021-12-13 23:51:00,,0824.0,5.00,0.00,30.5,29.6,00.0,39.5,32.2,06.3,0005.0,0031.08,0007.14,0004.70
2021-12-13 23:52:00,,0824.0,5.00,0.00,30.5,29.6,00.0,39.5,32.2,06.3,0004.8,0031.42,0007.09,0004.73
2021-12-13 23:53:00,,0824.0,5.01,0.00,30.5,29.6,00.0,39.5,32.2,06.3,0005.3,0032.02,0007.03,0004.72
2021-12-13 23:54:00,,0824.0,4.99,0.00,30.5,29.6,00.0,39.5,32.2,06.3,0005.1,0032.41,0006.99,0004.72
2021-12-13 23:55:00,,0824.0,5.00,0.00,30.5,29.6,00.0,39.5,32.2,06.3,0005.8,0031.92,0006.99,0004.72
2021-12-13 23:56:00,,0824.0,5.01,0.00,30.5,29.6,00.0,39.5,32.2,06.3,0005.8,0029.49,0006.95,0004.72
2021-12-13 23:57:00,,0824.0,5.01,0.00,30.5,29.6,00.0,39.5,32.2,06.4,0005.2,0031.14,0006.94,0004.73
2021-12-13 23:58:00,,0823.9,5.01,0.00,30.5,29.6,00.0,39.5,32.2,06.4,0004.7,0030.63,0007.06,0004.75
2021-12-13 23:59:00,,0824.0,4.98,0.00,30.5,29.6,00.0,39.5,32.2,06.4,0004.2,0029.26,0007.05,0004.76
